Time,TemperatureF,DewpointF,PressureIn,WindDirection,WindDirectionDegrees,WindSpeedMPH,WindSpeedGustMPH,Humidity,HourlyPrecipIn,Conditions,Clouds,dailyrainin,SoftwareType,DateUTC
2013-02-25 00:00:00,39.6,24.2,30.03,ESE,113,0.7,1.8,54,0.00,,,0.00,WUHU216HW,2013-02-25 05:00:00,
2013-02-25 00:05:00,39.2,24.3,30.03,ESE,113,0.0,0.9,55,0.00,,,0.00,WUHU216HW,2013-02-25 05:05:00,
2013-02-25 00:10:00,39.2,24.3,30.03,ESE,113,0.0,0.4,55,0.00,,,0.00,WUHU216HW,2013-02-25 05:10:00,
2013-02-25 00:15:00,39.1,24.1,30.03,ESE,113,0.0,0.0,55,0.00,,,0.00,WUHU216HW,2013-02-25 05:15:00,
2013-02-25 00:20:00,38.9,23.9,30.03,ESE,113,0.0,0.0,55,0.00,,,0.00,WUHU216HW,2013-02-25 05:20:00,
2013-02-25 00:25:00,38.9,23.9,30.03,ENE,68,0.0,0.0,55,0.00,,,0.00,WUHU216HW,2013-02-25 05:25:00,
2013-02-25 00:30:00,38.9,23.9,30.03,ENE,68,0.0,0.0,55,0.00,,,0.00,WUHU216HW,2013-02-25 05:30:00,
2013-02-25 00:35:00,38.9,23.9,30.03,ENE,68,0.0,0.0,55,0.00,,,0.00,WUHU216HW,2013-02-25 05:35:00,
2013-02-25 00:40:00,38.9,23.9,30.03,ENE,68,0.0,0.0,55,0.00,,,0.00,WUHU216HW,2013-02-25 05:40:00,
2013-02-25 00:45:00,38.9,23.9,30.03,ENE,68,0.0,0.0,55,0.00,,,0.00,WUHU216HW,2013-02-25 05:45:00,
2013-02-25 00:50:00,38.9,23.9,30.02,ENE,68,0.0,0.0,55,0.00,,,0.00,WUHU216HW,2013-02-25 05:50:00,
2013-02-25 00:55:00,38.9,23.9,30.03,ENE,68,0.0,0.0,55,0.00,,,0.00,WUHU216HW,2013-02-25 05:55:00,
2013-02-25 01:00:00,38.7,23.9,30.03,NE,45,0.4,0.4,55,0.00,,,0.00,WUHU216HW,2013-02-25 06:00:00,
2013-02-25 01:05:00,38.7,23.9,30.03,NE,45,0.0,0.4,55,0.00,,,0.00,WUHU216HW,2013-02-25 06:05:00,
2013-02-25 01:10:00,38.5,23.7,30.03,NE,45,0.0,0.4,55,0.00,,,0.00,WUHU216HW,2013-02-25 06:10:00,
2013-02-25 01:15:00,38.5,23.7,30.03,NE,45,0.7,0.9,55,0.00,,,0.00,WUHU216HW,2013-02-25 06:15:00,
2013-02-25 01:20:00,38.5,23.7,30.02,NE,45,1.1,1.3,55,0.00,,,0.00,WUHU216HW,2013-02-25 06:20:00,
2013-02-25 01:25:00,38.3,24.0,30.02,NE,45,0.4,1.3,56,0.00,,,0.00,WUHU216HW,2013-02-25 06:25:00,
2013-02-25 01:31:00,38.3,24.0,30.03,NE,45,0.0,1.3,56,0.00,,,0.00,WUHU216HW,2013-02-25 06:31:00,
2013-02-25 01:36:00,38.3,24.0,30.04,SE,135,0.7,1.1,56,0.00,,,0.00,WUHU216HW,2013-02-25 06:36:00,
2013-02-25 01:41:00,38.2,23.8,30.03,NE,45,0.4,1.1,56,0.00,,,0.00,WUHU216HW,2013-02-25 06:41:00,
2013-02-25 01:46:00,38.2,23.8,30.03,SE,135,0.0,0.7,56,0.00,,,0.00,WUHU216HW,2013-02-25 06:46:00,
2013-02-25 01:51:00,38.2,23.8,30.03,East,90,0.0,0.4,56,0.00,,,0.00,WUHU216HW,2013-02-25 06:51:00,
2013-02-25 01:56:00,38.0,23.6,30.02,NE,45,1.8,1.8,56,0.00,,,0.00,WUHU216HW,2013-02-25 06:56:00,
2013-02-25 02:01:00,38.0,23.6,30.02,NE,45,1.3,1.8,56,0.00,,,0.00,WUHU216HW,2013-02-25 07:01:00,
2013-02-25 02:06:00,38.0,23.6,30.02,NE,45,1.1,2.2,56,0.00,,,0.00,WUHU216HW,2013-02-25 07:06:00,
2013-02-25 02:11:00,38.0,23.6,30.02,NE,45,0.2,2.5,56,0.00,,,0.00,WUHU216HW,2013-02-25 07:11:00,
2013-02-25 02:16:00,38.0,23.6,30.02,North,0,0.4,2.5,56,0.00,,,0.00,WUHU216HW,2013-02-25 07:16:00,
2013-02-25 02:21:00,38.2,23.8,30.02,NE,45,0.0,2.0,56,0.00,,,0.00,WUHU216HW,2013-02-25 07:21:00,
2013-02-25 02:26:00,38.2,23.8,30.02,NE,45,0.0,1.3,56,0.00,,,0.00,WUHU216HW,2013-02-25 07:26:00,
2013-02-25 02:31:00,38.2,23.8,30.02,NE,45,0.0,1.3,56,0.00,,,0.00,WUHU216HW,2013-02-25 07:31:00,
2013-02-25 02:36:00,38.2,23.8,30.02,ENE,68,1.8,2.2,56,0.00,,,0.00,WUHU216HW,2013-02-25 07:36:00,
2013-02-25 02:41:00,38.2,23.8,30.02,NE,45,0.0,2.2,56,0.00,,,0.00,WUHU216HW,2013-02-25 07:41:00,
2013-02-25 02:46:00,38.0,23.6,30.01,NNE,23,0.0,1.8,56,0.00,,,0.00,WUHU216HW,2013-02-25 07:46:00,
2013-02-25 02:51:00,38.0,23.6,30.01,North,0,1.8,1.8,56,0.00,,,0.00,WUHU216HW,2013-02-25 07:51:00,
2013-02-25 02:56:00,38.0,23.6,30.00,NNE,23,1.1,2.5,56,0.00,,,0.00,WUHU216HW,2013-02-25 07:56:00,
2013-02-25 03:01:00,38.0,23.6,30.01,North,0,0.0,4.0,56,0.00,,,0.00,WUHU216HW,2013-02-25 08:01:00,
2013-02-25 03:06:00,38.0,23.6,30.01,SE,135,0.0,4.0,56,0.00,,,0.00,WUHU216HW,2013-02-25 08:06:00,
2013-02-25 03:11:00,37.8,23.4,30.02,SSE,158,0.0,1.1,56,0.00,,,0.00,WUHU216HW,2013-02-25 08:11:00,
2013-02-25 03:16:00,37.8,23.4,30.02,ESE,113,0.2,0.4,56,0.00,,,0.00,WUHU216HW,2013-02-25 08:16:00,
2013-02-25 03:21:00,37.6,23.3,30.02,SSW,203,0.4,0.9,56,0.00,,,0.00,WUHU216HW,2013-02-25 08:21:00,
2013-02-25 03:26:00,37.6,23.7,30.01,ESE,113,0.0,0.9,57,0.00,,,0.00,WUHU216HW,2013-02-25 08:26:00,
2013-02-25 03:31:00,37.4,23.6,30.01,ESE,113,0.0,2.2,57,0.00,,,0.00,WUHU216HW,2013-02-25 08:31:00,
2013-02-25 03:36:00,37.3,23.4,30.02,WNW,293,0.4,2.2,57,0.00,,,0.00,WUHU216HW,2013-02-25 08:36:00,
2013-02-25 03:41:00,37.3,23.4,30.02,NW,315,0.0,1.3,57,0.00,,,0.00,WUHU216HW,2013-02-25 08:41:00,
2013-02-25 03:46:00,37.1,23.2,30.02,SSW,203,0.0,0.4,57,0.00,,,0.00,WUHU216HW,2013-02-25 08:46:00,
2013-02-25 03:51:00,37.1,23.7,30.02,NNE,23,0.4,0.4,58,0.00,,,0.00,WUHU216HW,2013-02-25 08:51:00,
2013-02-25 03:56:00,37.1,23.7,30.02,WNW,293,0.0,0.7,58,0.00,,,0.00,WUHU216HW,2013-02-25 08:56:00,
2013-02-25 04:01:00,36.9,23.5,30.02,East,90,0.4,0.9,58,0.00,,,0.00,WUHU216HW,2013-02-25 09:01:00,
2013-02-25 04:06:00,36.9,23.5,30.01,NNE,23,0.9,1.1,58,0.00,,,0.00,WUHU216HW,2013-02-25 09:06:00,
2013-02-25 04:11:00,36.9,23.5,30.01,NE,45,1.8,2.7,58,0.00,,,0.00,WUHU216HW,2013-02-25 09:11:00,
2013-02-25 04:16:00,36.9,23.5,30.00,North,0,0.2,2.7,58,0.00,,,0.00,WUHU216HW,2013-02-25 09:16:00,
2013-02-25 04:21:00,37.1,23.7,30.00,ENE,68,0.4,2.0,58,0.00,,,0.00,WUHU216HW,2013-02-25 09:21:00,
2013-02-25 04:26:00,37.1,23.7,30.01,NE,45,0.4,2.7,58,0.00,,,0.00,WUHU216HW,2013-02-25 09:26:00,
2013-02-25 04:31:00,37.1,23.7,30.01,North,0,0.0,2.7,58,0.00,,,0.00,WUHU216HW,2013-02-25 09:31:00,
2013-02-25 04:36:00,37.1,23.7,30.00,East,90,0.0,2.2,58,0.00,,,0.00,WUHU216HW,2013-02-25 09:36:00,
2013-02-25 04:41:00,37.1,23.7,30.00,SSE,158,0.7,2.9,58,0.00,,,0.00,WUHU216HW,2013-02-25 09:41:00,
2013-02-25 04:46:00,37.1,23.7,30.00,WSW,248,0.0,2.9,58,0.00,,,0.00,WUHU216HW,2013-02-25 09:46:00,
2013-02-25 04:51:00,37.1,23.7,30.00,WNW,293,0.2,1.8,58,0.00,,,0.00,WUHU216HW,2013-02-25 09:51:00,
2013-02-25 04:56:00,37.1,23.7,30.01,WSW,248,0.0,1.8,58,0.00,,,0.00,WUHU216HW,2013-02-25 09:56:00,
2013-02-25 05:01:00,37.1,23.7,30.01,SE,135,1.8,1.8,58,0.00,,,0.00,WUHU216HW,2013-02-25 10:01:00,
2013-02-25 05:06:00,36.9,23.5,30.01,SW,225,0.0,1.8,58,0.00,,,0.00,WUHU216HW,2013-02-25 10:06:00,
2013-02-25 05:11:00,36.7,23.8,30.01,South,180,0.9,1.8,59,0.00,,,0.00,WUHU216HW,2013-02-25 10:11:00,
2013-02-25 05:16:00,36.7,23.8,30.01,SSE,158,0.0,1.3,59,0.00,,,0.00,WUHU216HW,2013-02-25 10:16:00,
2013-02-25 05:21:00,36.5,23.6,30.02,SSE,158,1.1,1.8,59,0.00,,,0.00,WUHU216HW,2013-02-25 10:21:00,
2013-02-25 05:26:00,36.4,23.9,30.02,SE,135,1.1,1.8,60,0.00,,,0.00,WUHU216HW,2013-02-25 10:26:00,
2013-02-25 05:31:00,36.0,23.6,30.02,SSE,158,0.4,1.8,60,0.00,,,0.00,WUHU216HW,2013-02-25 10:31:00,
2013-02-25 05:36:00,35.8,23.4,30.03,SSE,158,0.0,1.8,60,0.00,,,0.00,WUHU216HW,2013-02-25 10:36:00,
2013-02-25 05:41:00,35.6,23.2,30.02,ESE,113,0.0,0.4,60,0.00,,,0.00,WUHU216HW,2013-02-25 10:41:00,
2013-02-25 05:46:00,35.5,23.0,30.02,ESE,113,0.0,0.4,60,0.00,,,0.00,WUHU216HW,2013-02-25 10:46:00,
2013-02-25 05:51:00,35.3,23.2,30.02,SSE,158,0.4,0.4,61,0.00,,,0.00,WUHU216HW,2013-02-25 10:51:00,
2013-02-25 05:56:00,35.3,23.2,30.02,SE,135,0.0,0.4,61,0.00,,,0.00,WUHU216HW,2013-02-25 10:56:00,
2013-02-25 06:01:00,35.3,23.2,30.02,SSE,158,2.2,2.2,61,0.00,,,0.00,WUHU216HW,2013-02-25 11:01:00,
2013-02-25 06:06:00,35.3,23.2,30.02,SE,135,0.2,2.2,61,0.00,,,0.00,WUHU216HW,2013-02-25 11:06:00,
2013-02-25 06:11:00,35.5,23.4,30.02,SSE,158,0.0,2.2,61,0.00,,,0.00,WUHU216HW,2013-02-25 11:11:00,
2013-02-25 06:16:00,35.5,23.4,30.03,SSE,158,0.9,1.1,61,0.00,,,0.00,WUHU216HW,2013-02-25 11:16:00,
2013-02-25 06:21:00,35.5,23.4,30.03,SSE,158,0.9,1.8,61,0.00,,,0.00,WUHU216HW,2013-02-25 11:21:00,
2013-02-25 06:26:00,35.5,23.4,30.03,SW,225,0.4,2.5,61,0.00,,,0.00,WUHU216HW,2013-02-25 11:26:00,
2013-02-25 06:31:00,35.5,23.4,30.03,ESE,113,0.0,2.5,61,0.00,,,0.00,WUHU216HW,2013-02-25 11:31:00,
2013-02-25 06:36:00,35.3,23.2,30.03,WNW,293,0.4,1.1,61,0.00,,,0.00,WUHU216HW,2013-02-25 11:36:00,
2013-02-25 06:41:00,35.3,23.2,30.02,WSW,248,0.0,0.7,61,0.00,,,0.00,WUHU216HW,2013-02-25 11:41:00,
2013-02-25 06:46:00,35.5,23.4,30.02,SSE,158,0.4,0.4,61,0.00,,,0.00,WUHU216HW,2013-02-25 11:46:00,
2013-02-25 06:51:00,35.5,23.8,30.02,South,180,0.0,1.1,62,0.00,,,0.00,WUHU216HW,2013-02-25 11:51:00,
2013-02-25 06:56:00,35.3,23.6,30.02,SE,135,0.2,1.3,62,0.00,,,0.00,WUHU216HW,2013-02-25 11:56:00,
2013-02-25 07:01:00,35.3,23.6,30.02,WSW,248,0.2,1.3,62,0.00,,,0.00,WUHU216HW,2013-02-25 12:01:00,
2013-02-25 07:06:00,35.3,23.6,30.03,SSE,158,0.2,1.8,62,0.00,,,0.00,WUHU216HW,2013-02-25 12:06:00,
2013-02-25 07:11:00,35.3,23.6,30.03,SSE,158,0.0,1.8,62,0.00,,,0.00,WUHU216HW,2013-02-25 12:11:00,
2013-02-25 07:16:00,35.3,23.6,30.03,SE,135,1.8,2.0,62,0.00,,,0.00,WUHU216HW,2013-02-25 12:16:00,
2013-02-25 07:21:00,35.3,23.6,30.04,SE,135,0.4,2.0,62,0.00,,,0.00,WUHU216HW,2013-02-25 12:21:00,
2013-02-25 07:26:00,35.3,23.6,30.04,ESE,113,0.2,1.3,62,0.00,,,0.00,WUHU216HW,2013-02-25 12:26:00,
2013-02-25 07:31:00,35.1,23.4,30.04,NNE,23,0.2,0.9,62,0.00,,,0.00,WUHU216HW,2013-02-25 12:31:00,
2013-02-25 07:36:00,35.3,23.6,30.04,South,180,0.4,0.9,62,0.00,,,0.00,WUHU216HW,2013-02-25 12:36:00,
2013-02-25 07:41:00,35.3,23.6,30.04,NE,45,0.0,0.9,62,0.00,,,0.00,WUHU216HW,2013-02-25 12:41:00,
2013-02-25 07:46:00,35.3,23.6,30.04,NNE,23,0.4,2.5,62,0.00,,,0.00,WUHU216HW,2013-02-25 12:46:00,
2013-02-25 07:52:00,35.5,23.8,30.04,SE,135,1.1,2.5,62,0.00,,,0.00,WUHU216HW,2013-02-25 12:52:00,
2013-02-25 07:57:00,35.6,23.9,30.05,East,90,0.7,2.0,62,0.00,,,0.00,WUHU216HW,2013-02-25 12:57:00,
2013-02-25 08:02:00,35.6,23.9,30.05,NE,45,0.2,4.9,62,0.00,,,0.00,WUHU216HW,2013-02-25 13:02:00,
2013-02-25 08:07:00,35.8,24.1,30.05,WNW,293,0.4,4.9,62,0.00,,,0.00,WUHU216HW,2013-02-25 13:07:00,
2013-02-25 08:12:00,36.0,24.3,30.05,ENE,68,0.4,4.3,62,0.00,,,0.00,WUHU216HW,2013-02-25 13:12:00,
2013-02-25 08:17:00,36.4,24.6,30.04,ENE,68,1.1,4.3,62,0.00,,,0.00,WUHU216HW,2013-02-25 13:17:00,
2013-02-25 08:22:00,36.4,24.6,30.04,NNE,23,0.2,2.5,62,0.00,,,0.00,WUHU216HW,2013-02-25 13:22:00,
2013-02-25 08:27:00,36.5,24.8,30.04,SE,135,1.1,2.5,62,0.00,,,0.00,WUHU216HW,2013-02-25 13:27:00,
2013-02-25 08:32:00,36.7,24.9,30.04,South,180,0.0,2.5,62,0.00,,,0.00,WUHU216HW,2013-02-25 13:32:00,
2013-02-25 08:37:00,36.7,24.9,30.04,SSE,158,0.0,2.5,62,0.00,,,0.00,WUHU216HW,2013-02-25 13:37:00,
2013-02-25 08:42:00,36.9,25.1,30.04,SSE,158,0.2,2.5,62,0.00,,,0.00,WUHU216HW,2013-02-25 13:42:00,
2013-02-25 08:47:00,36.9,25.1,30.04,SE,135,0.4,1.1,62,0.00,,,0.00,WUHU216HW,2013-02-25 13:47:00,
2013-02-25 08:52:00,36.9,25.1,30.04,West,270,0.2,1.8,62,0.00,,,0.00,WUHU216HW,2013-02-25 13:52:00,
2013-02-25 08:57:00,37.1,25.3,30.04,SW,225,2.7,2.7,62,0.00,,,0.00,WUHU216HW,2013-02-25 13:57:00,
2013-02-25 09:02:00,37.1,25.3,30.04,SSW,203,1.1,2.7,62,0.00,,,0.00,WUHU216HW,2013-02-25 14:02:00,
2013-02-25 09:07:00,37.4,25.6,30.04,SSE,158,0.4,2.0,62,0.00,,,0.00,WUHU216HW,2013-02-25 14:07:00,
2013-02-25 09:13:00,37.6,25.7,30.04,SSE,158,0.9,2.0,62,0.00,,,0.00,WUHU216HW,2013-02-25 14:13:00,
2013-02-25 09:18:00,37.8,26.3,30.04,SSE,158,2.9,2.9,63,0.00,,,0.00,WUHU216HW,2013-02-25 14:18:00,
2013-02-25 09:23:00,37.8,26.3,30.04,SSE,158,1.1,3.4,63,0.00,,,0.00,WUHU216HW,2013-02-25 14:23:00,
2013-02-25 09:28:00,38.2,26.7,30.04,East,90,0.0,3.4,63,0.00,,,0.00,WUHU216HW,2013-02-25 14:28:00,
2013-02-25 09:33:00,38.2,26.7,30.04,South,180,0.4,1.8,63,0.00,,,0.00,WUHU216HW,2013-02-25 14:33:00,
2013-02-25 09:38:00,38.5,26.9,30.03,East,90,1.8,1.8,63,0.00,,,0.00,WUHU216HW,2013-02-25 14:38:00,
2013-02-25 09:43:00,38.5,26.9,30.03,SW,225,0.0,4.7,63,0.00,,,0.00,WUHU216HW,2013-02-25 14:43:00,
2013-02-25 09:48:00,38.7,26.7,30.03,NNE,23,1.1,4.7,62,0.00,,,0.00,WUHU216HW,2013-02-25 14:48:00,
2013-02-25 09:53:00,39.1,27.1,30.03,WSW,248,0.4,1.8,62,0.00,,,0.00,WUHU216HW,2013-02-25 14:53:00,
2013-02-25 09:58:00,39.2,27.2,30.04,ENE,68,1.1,3.6,62,0.00,,,0.00,WUHU216HW,2013-02-25 14:58:00,
2013-02-25 10:03:00,39.4,27.4,30.04,NNE,23,0.4,3.6,62,0.00,,,0.00,WUHU216HW,2013-02-25 15:03:00,
2013-02-25 10:08:00,39.6,27.2,30.04,ENE,68,2.9,4.7,61,0.00,,,0.00,WUHU216HW,2013-02-25 15:08:00,
2013-02-25 10:13:00,39.8,27.4,30.03,NE,45,2.0,4.7,61,0.00,,,0.00,WUHU216HW,2013-02-25 15:13:00,
2013-02-25 10:18:00,40.1,27.7,30.03,NE,45,1.1,4.7,61,0.00,,,0.00,WUHU216HW,2013-02-25 15:18:00,
2013-02-25 10:23:00,40.5,27.7,30.03,NW,315,1.1,4.7,60,0.00,,,0.00,WUHU216HW,2013-02-25 15:23:00,
2013-02-25 10:28:00,40.7,27.9,30.04,SW,225,0.2,2.7,60,0.00,,,0.00,WUHU216HW,2013-02-25 15:28:00,
2013-02-25 10:33:00,40.9,28.1,30.03,WNW,293,1.1,2.0,60,0.00,,,0.00,WUHU216HW,2013-02-25 15:33:00,
2013-02-25 10:38:00,41.0,27.8,30.03,North,0,0.4,2.5,59,0.00,,,0.00,WUHU216HW,2013-02-25 15:38:00,
2013-02-25 10:43:00,41.4,28.2,30.03,SSE,158,2.5,3.6,59,0.00,,,0.00,WUHU216HW,2013-02-25 15:43:00,
2013-02-25 10:48:00,41.8,28.4,30.03,NE,45,1.1,4.3,59,0.00,,,0.00,WUHU216HW,2013-02-25 15:48:00,
2013-02-25 10:53:00,42.1,28.8,30.03,SSW,203,0.9,4.3,59,0.00,,,0.00,WUHU216HW,2013-02-25 15:53:00,
2013-02-25 10:58:00,42.3,29.0,30.03,ESE,113,0.7,1.8,59,0.00,,,0.00,WUHU216HW,2013-02-25 15:58:00,
2013-02-25 11:03:00,42.5,28.7,30.03,NNE,23,0.2,3.4,58,0.00,,,0.00,WUHU216HW,2013-02-25 16:03:00,
2013-02-25 11:08:00,42.7,28.9,30.03,ENE,68,1.8,3.4,58,0.00,,,0.00,WUHU216HW,2013-02-25 16:08:00,
2013-02-25 11:13:00,42.8,28.6,30.02,NNE,23,0.2,2.5,57,0.00,,,0.00,WUHU216HW,2013-02-25 16:13:00,
2013-02-25 11:18:00,42.8,28.6,30.02,SSW,203,0.2,2.5,57,0.00,,,0.00,WUHU216HW,2013-02-25 16:18:00,
2013-02-25 11:23:00,43.2,28.9,30.02,ESE,113,0.4,3.6,57,0.00,,,0.00,WUHU216HW,2013-02-25 16:23:00,
2013-02-25 11:28:00,43.6,29.3,30.02,North,0,0.4,3.6,57,0.00,,,0.00,WUHU216HW,2013-02-25 16:28:00,
2013-02-25 11:33:00,43.9,29.6,30.02,ENE,68,0.4,2.9,57,0.00,,,0.00,WUHU216HW,2013-02-25 16:33:00,
2013-02-25 11:38:00,44.3,30.0,30.01,SSE,158,2.0,3.4,57,0.00,,,0.00,WUHU216HW,2013-02-25 16:38:00,
2013-02-25 11:43:00,44.8,30.1,30.02,SSE,158,2.0,3.4,56,0.00,,,0.00,WUHU216HW,2013-02-25 16:43:00,
2013-02-25 11:48:00,45.0,30.7,30.02,SE,135,3.4,4.3,57,0.00,,,0.00,WUHU216HW,2013-02-25 16:48:00,
2013-02-25 11:53:00,45.4,30.5,30.02,SSE,158,2.7,4.3,56,0.00,,,0.00,WUHU216HW,2013-02-25 16:53:00,
2013-02-25 11:58:00,45.4,30.1,30.01,SSE,158,0.4,4.5,55,0.00,,,0.00,WUHU216HW,2013-02-25 16:58:00,
2013-02-25 12:03:00,45.5,30.2,30.02,SE,135,1.3,4.5,55,0.00,,,0.00,WUHU216HW,2013-02-25 17:03:00,
2013-02-25 12:08:00,45.7,30.9,30.02,NW,315,0.7,3.4,56,0.00,,,0.00,WUHU216HW,2013-02-25 17:08:00,
2013-02-25 12:13:00,45.9,30.6,30.02,SE,135,0.4,3.4,55,0.00,,,0.00,WUHU216HW,2013-02-25 17:13:00,
2013-02-25 12:18:00,46.3,30.9,30.02,SSW,203,1.8,3.4,55,0.00,,,0.00,WUHU216HW,2013-02-25 17:18:00,
2013-02-25 12:23:00,46.4,31.1,30.01,ENE,68,1.1,2.5,55,0.00,,,0.00,WUHU216HW,2013-02-25 17:23:00,
2013-02-25 12:28:00,46.8,31.4,30.01,East,90,0.4,2.5,55,0.00,,,0.00,WUHU216HW,2013-02-25 17:28:00,
2013-02-25 12:33:00,46.8,31.4,30.00,South,180,0.4,2.2,55,0.00,,,0.00,WUHU216HW,2013-02-25 17:33:00,
2013-02-25 12:38:00,47.0,31.6,30.00,WNW,293,0.0,3.1,55,0.00,,,0.00,WUHU216HW,2013-02-25 17:38:00,
2013-02-25 12:43:00,47.0,31.6,29.99,North,0,0.4,3.4,55,0.00,,,0.00,WUHU216HW,2013-02-25 17:43:00,
2013-02-25 12:48:00,47.2,31.8,30.00,SE,135,1.8,3.4,55,0.00,,,0.00,WUHU216HW,2013-02-25 17:48:00,
2013-02-25 12:53:00,47.5,32.0,29.98,ENE,68,0.4,3.4,55,0.00,,,0.00,WUHU216HW,2013-02-25 17:53:00,
2013-02-25 12:58:00,48.1,32.6,29.98,SSE,158,2.2,3.4,55,0.00,,,0.00,WUHU216HW,2013-02-25 17:58:00,
2013-02-25 13:03:00,48.6,32.7,29.99,ENE,68,0.9,4.5,54,0.00,,,0.00,WUHU216HW,2013-02-25 18:03:00,
2013-02-25 13:08:00,49.0,32.9,29.99,East,90,2.0,4.5,54,0.00,,,0.00,WUHU216HW,2013-02-25 18:08:00,
2013-02-25 13:13:00,48.6,32.1,29.99,SE,135,1.6,4.5,53,0.00,,,0.00,WUHU216HW,2013-02-25 18:13:00,
2013-02-25 13:18:00,48.8,32.3,29.99,ESE,113,1.8,4.5,53,0.00,,,0.00,WUHU216HW,2013-02-25 18:18:00,
2013-02-25 13:23:00,49.3,33.3,29.98,SE,135,2.5,3.8,54,0.00,,,0.00,WUHU216HW,2013-02-25 18:23:00,
2013-02-25 13:28:00,50.2,33.8,29.98,ENE,68,2.7,5.8,53,0.00,,,0.00,WUHU216HW,2013-02-25 18:28:00,
2013-02-25 13:33:00,51.1,34.6,29.98,NNE,23,1.3,5.8,53,0.00,,,0.00,WUHU216HW,2013-02-25 18:33:00,
2013-02-25 13:38:00,51.8,34.3,29.98,SSW,203,2.2,3.1,51,0.00,,,0.00,WUHU216HW,2013-02-25 18:38:00,
2013-02-25 13:43:00,52.6,34.9,29.97,South,180,2.0,4.0,51,0.00,,,0.00,WUHU216HW,2013-02-25 18:43:00,
2013-02-25 13:48:00,53.1,35.5,29.97,SSE,158,1.6,4.0,51,0.00,,,0.00,WUHU216HW,2013-02-25 18:48:00,
2013-02-25 13:53:00,53.5,34.7,29.97,SSW,203,0.7,4.7,49,0.00,,,0.00,WUHU216HW,2013-02-25 18:53:00,
2013-02-25 13:58:00,53.6,34.4,29.97,ENE,68,1.6,4.7,48,0.00,,,0.00,WUHU216HW,2013-02-25 18:58:00,
2013-02-25 14:03:00,53.8,34.5,29.97,NE,45,2.0,4.7,48,0.00,,,0.00,WUHU216HW,2013-02-25 19:03:00,
2013-02-25 14:08:00,54.2,34.8,29.97,SSE,158,2.7,4.5,48,0.00,,,0.00,WUHU216HW,2013-02-25 19:08:00,
2013-02-25 14:13:00,54.4,34.5,29.97,NE,45,1.1,4.5,47,0.00,,,0.00,WUHU216HW,2013-02-25 19:13:00,
2013-02-25 14:18:00,54.7,35.3,29.96,SSW,203,4.5,4.5,48,0.00,,,0.00,WUHU216HW,2013-02-25 19:18:00,
2013-02-25 14:23:00,54.9,35.5,29.96,SSE,158,1.6,4.5,48,0.00,,,0.00,WUHU216HW,2013-02-25 19:23:00,
2013-02-25 14:28:00,55.1,35.1,29.96,SE,135,1.1,4.5,47,0.00,,,0.00,WUHU216HW,2013-02-25 19:28:00,
2013-02-25 14:33:00,55.3,34.7,29.96,SSE,158,0.7,7.6,46,0.00,,,0.00,WUHU216HW,2013-02-25 19:33:00,
2013-02-25 14:38:00,55.4,34.8,29.96,SSE,158,3.1,7.6,46,0.00,,,0.00,WUHU216HW,2013-02-25 19:38:00,
2013-02-25 14:43:00,55.4,34.8,29.96,ENE,68,4.7,6.0,46,0.00,,,0.00,WUHU216HW,2013-02-25 19:43:00,
2013-02-25 14:48:00,55.8,35.7,29.96,SE,135,4.7,6.5,47,0.00,,,0.00,WUHU216HW,2013-02-25 19:48:00,
2013-02-25 14:53:00,56.2,35.6,29.96,NE,45,2.5,6.5,46,0.00,,,0.00,WUHU216HW,2013-02-25 19:53:00,
2013-02-25 14:58:00,56.5,35.9,29.96,South,180,2.5,4.7,46,0.00,,,0.00,WUHU216HW,2013-02-25 19:58:00,
2013-02-25 15:03:00,56.7,36.1,29.96,ENE,68,2.2,4.3,46,0.00,,,0.00,WUHU216HW,2013-02-25 20:03:00,
2013-02-25 15:08:00,56.9,36.3,29.95,SSW,203,2.0,4.3,46,0.00,,,0.00,WUHU216HW,2013-02-25 20:08:00,
2013-02-25 15:13:00,57.2,35.5,29.95,NE,45,1.8,4.0,44,0.00,,,0.00,WUHU216HW,2013-02-25 20:13:00,
2013-02-25 15:18:00,57.2,36.0,29.95,SE,135,5.4,5.4,45,0.00,,,0.00,WUHU216HW,2013-02-25 20:18:00,
2013-02-25 15:23:00,57.4,36.2,29.95,ENE,68,1.8,5.4,45,0.00,,,0.00,WUHU216HW,2013-02-25 20:23:00,
2013-02-25 15:28:00,57.6,36.4,29.94,SSE,158,4.7,5.4,45,0.00,,,0.00,WUHU216HW,2013-02-25 20:28:00,
2013-02-25 15:33:00,57.6,36.4,29.94,SSE,158,3.4,5.4,45,0.00,,,0.00,WUHU216HW,2013-02-25 20:33:00,
2013-02-25 15:38:00,57.6,36.4,29.94,NE,45,4.9,4.9,45,0.00,,,0.00,WUHU216HW,2013-02-25 20:38:00,
2013-02-25 15:43:00,57.6,36.4,29.94,SE,135,3.1,4.9,45,0.00,,,0.00,WUHU216HW,2013-02-25 20:43:00,
2013-02-25 15:48:00,58.0,36.6,29.94,SE,135,0.7,4.9,45,0.00,,,0.00,WUHU216HW,2013-02-25 20:48:00,
2013-02-25 15:53:00,58.0,36.6,29.93,South,180,0.7,3.1,45,0.00,,,0.00,WUHU216HW,2013-02-25 20:53:00,
2013-02-25 15:58:00,58.3,37.0,29.93,SSW,203,2.0,3.8,45,0.00,,,0.00,WUHU216HW,2013-02-25 20:58:00,
2013-02-25 16:03:00,59.0,37.1,29.93,ESE,113,0.2,4.7,44,0.00,,,0.00,WUHU216HW,2013-02-25 21:03:00,
2013-02-25 16:08:00,59.9,37.3,29.93,SE,135,4.0,5.4,43,0.00,,,0.00,WUHU216HW,2013-02-25 21:08:00,
2013-02-25 16:13:00,60.3,35.9,29.93,ESE,113,2.5,5.4,40,0.00,,,0.00,WUHU216HW,2013-02-25 21:13:00,
2013-02-25 16:18:00,60.8,36.9,29.93,ENE,68,1.1,5.4,41,0.00,,,0.00,WUHU216HW,2013-02-25 21:18:00,
2013-02-25 16:23:00,61.9,37.9,29.93,NNW,338,1.1,4.0,41,0.00,,,0.00,WUHU216HW,2013-02-25 21:23:00,
2013-02-25 16:28:00,64.1,39.2,29.93,SW,225,0.2,4.0,40,0.00,,,0.00,WUHU216HW,2013-02-25 21:28:00,
2013-02-25 16:33:00,65.5,39.2,29.93,SSE,158,2.0,4.5,38,0.00,,,0.00,WUHU216HW,2013-02-25 21:33:00,
2013-02-25 16:38:00,65.0,38.6,29.93,SSE,158,2.9,4.5,38,0.00,,,0.00,WUHU216HW,2013-02-25 21:38:00,
2013-02-25 16:43:00,65.2,38.8,29.92,East,90,2.5,3.6,38,0.00,,,0.00,WUHU216HW,2013-02-25 21:43:00,
2013-02-25 16:48:00,64.8,37.1,29.93,SE,135,2.9,4.7,36,0.00,,,0.00,WUHU216HW,2013-02-25 21:48:00,
2013-02-25 16:53:00,63.7,36.1,29.93,SE,135,4.3,4.7,36,0.00,,,0.00,WUHU216HW,2013-02-25 21:53:00,
2013-02-25 16:58:00,62.5,34.9,29.92,SE,135,1.8,4.7,36,0.00,,,0.00,WUHU216HW,2013-02-25 21:58:00,
2013-02-25 17:03:00,62.3,35.5,29.92,SE,135,1.1,4.5,37,0.00,,,0.00,WUHU216HW,2013-02-25 22:03:00,
2013-02-25 17:08:00,61.6,34.8,29.91,South,180,4.0,4.9,37,0.00,,,0.00,WUHU216HW,2013-02-25 22:08:00,
2013-02-25 17:13:00,60.8,34.9,29.91,SSE,158,2.5,4.9,38,0.00,,,0.00,WUHU216HW,2013-02-25 22:13:00,
2013-02-25 17:18:00,60.1,34.3,29.91,SE,135,4.7,4.7,38,0.00,,,0.00,WUHU216HW,2013-02-25 22:18:00,
2013-02-25 17:23:00,59.0,34.0,29.91,SE,135,2.5,4.7,39,0.00,,,0.00,WUHU216HW,2013-02-25 22:23:00,
2013-02-25 17:28:00,58.7,34.4,29.90,SE,135,0.9,4.7,40,0.00,,,0.00,WUHU216HW,2013-02-25 22:28:00,
2013-02-25 17:33:00,58.3,34.1,29.90,ESE,113,1.6,3.8,40,0.00,,,0.00,WUHU216HW,2013-02-25 22:33:00,
2013-02-25 17:38:00,57.6,33.5,29.90,South,180,0.7,3.4,40,0.00,,,0.00,WUHU216HW,2013-02-25 22:38:00,
2013-02-25 17:43:00,57.2,33.7,29.90,SE,135,0.7,2.5,41,0.00,,,0.00,WUHU216HW,2013-02-25 22:43:00,
2013-02-25 17:48:00,56.7,33.2,29.90,SSW,203,3.4,4.5,41,0.00,,,0.00,WUHU216HW,2013-02-25 22:48:00,
2013-02-25 17:53:00,56.2,32.7,29.90,SE,135,1.1,4.5,41,0.00,,,0.00,WUHU216HW,2013-02-25 22:53:00,
2013-02-25 17:58:00,55.8,32.9,29.89,SE,135,1.6,4.0,42,0.00,,,0.00,WUHU216HW,2013-02-25 22:58:00,
2013-02-25 18:03:00,55.4,32.6,29.89,SE,135,0.7,3.4,42,0.00,,,0.00,WUHU216HW,2013-02-25 23:03:00,
2013-02-25 18:08:00,55.3,33.0,29.89,NE,45,1.3,3.4,43,0.00,,,0.00,WUHU216HW,2013-02-25 23:08:00,
2013-02-25 18:13:00,54.9,32.7,29.88,ESE,113,1.1,3.4,43,0.00,,,0.00,WUHU216HW,2013-02-25 23:13:00,
2013-02-25 18:18:00,54.5,32.4,29.88,SSE,158,2.5,3.8,43,0.00,,,0.00,WUHU216HW,2013-02-25 23:18:00,
2013-02-25 18:23:00,54.2,32.6,29.88,SSE,158,0.9,3.8,44,0.00,,,0.00,WUHU216HW,2013-02-25 23:23:00,
2013-02-25 18:28:00,53.8,32.3,29.88,SE,135,2.5,3.8,44,0.00,,,0.00,WUHU216HW,2013-02-25 23:28:00,
2013-02-25 18:33:00,53.6,32.1,29.88,SE,135,3.1,3.8,44,0.00,,,0.00,WUHU216HW,2013-02-25 23:33:00,
2013-02-25 18:38:00,53.5,32.5,29.88,SSE,158,1.1,3.4,45,0.00,,,0.00,WUHU216HW,2013-02-25 23:38:00,
2013-02-25 18:43:00,53.3,32.3,29.88,ESE,113,0.7,5.4,45,0.00,,,0.00,WUHU216HW,2013-02-25 23:43:00,
2013-02-25 18:48:00,53.1,32.2,29.88,SE,135,3.1,5.4,45,0.00,,,0.00,WUHU216HW,2013-02-25 23:48:00,
2013-02-25 18:53:00,52.9,32.1,29.88,SSE,158,4.3,5.1,45,0.00,,,0.00,WUHU216HW,2013-02-25 23:53:00,
2013-02-25 18:58:00,52.6,32.2,29.88,SSE,158,2.5,4.7,46,0.00,,,0.00,WUHU216HW,2013-02-25 23:58:00,
2013-02-25 19:03:00,52.2,31.4,29.88,SE,135,3.4,4.0,45,0.00,,,0.00,WUHU216HW,2013-02-26 00:03:00,
2013-02-25 19:08:00,51.8,31.1,29.88,SSE,158,2.9,4.0,45,0.00,,,0.00,WUHU216HW,2013-02-26 00:08:00,
2013-02-25 19:13:00,51.5,30.7,29.87,SSE,158,5.4,5.6,45,0.00,,,0.00,WUHU216HW,2013-02-26 00:13:00,
2013-02-25 19:18:00,51.1,31.0,29.87,ESE,113,3.4,5.6,46,0.00,,,0.00,WUHU216HW,2013-02-26 00:18:00,
2013-02-25 19:23:00,50.8,30.6,29.87,SSE,158,4.0,5.4,46,0.00,,,0.00,WUHU216HW,2013-02-26 00:23:00,
2013-02-25 19:28:00,50.6,31.1,29.87,South,180,5.4,6.7,47,0.00,,,0.00,WUHU216HW,2013-02-26 00:28:00,
2013-02-25 19:33:00,50.2,30.7,29.87,SSE,158,2.5,6.7,47,0.00,,,0.00,WUHU216HW,2013-02-26 00:33:00,
2013-02-25 19:38:00,50.0,31.2,29.87,SE,135,6.3,6.3,48,0.00,,,0.00,WUHU216HW,2013-02-26 00:38:00,
2013-02-25 19:43:00,49.7,30.8,29.87,South,180,4.5,6.7,48,0.00,,,0.00,WUHU216HW,2013-02-26 00:43:00,
2013-02-25 19:48:00,49.5,30.6,29.87,ESE,113,5.4,8.1,48,0.00,,,0.00,WUHU216HW,2013-02-26 00:48:00,
2013-02-25 19:53:00,49.3,31.0,29.87,SSE,158,4.7,8.1,49,0.00,,,0.00,WUHU216HW,2013-02-26 00:53:00,
2013-02-25 19:58:00,49.3,31.0,29.87,SE,135,4.7,6.3,49,0.00,,,0.00,WUHU216HW,2013-02-26 00:58:00,
2013-02-25 20:03:00,49.1,30.8,29.87,SE,135,6.0,7.6,49,0.00,,,0.00,WUHU216HW,2013-02-26 01:03:00,
2013-02-25 20:08:00,49.0,31.1,29.86,SSE,158,1.3,7.6,50,0.00,,,0.00,WUHU216HW,2013-02-26 01:08:00,
2013-02-25 20:13:00,49.0,31.1,29.86,SSE,158,3.6,6.5,50,0.00,,,0.00,WUHU216HW,2013-02-26 01:13:00,
2013-02-25 20:18:00,48.8,31.4,29.87,SSE,158,4.0,4.7,51,0.00,,,0.00,WUHU216HW,2013-02-26 01:18:00,
2013-02-25 20:23:00,48.6,31.2,29.87,ESE,113,3.1,4.7,51,0.00,,,0.00,WUHU216HW,2013-02-26 01:23:00,
2013-02-25 20:28:00,48.6,31.2,29.87,SE,135,2.9,4.7,51,0.00,,,0.00,WUHU216HW,2013-02-26 01:28:00,
2013-02-25 20:33:00,48.4,31.5,29.87,SE,135,4.7,4.7,52,0.00,,,0.00,WUHU216HW,2013-02-26 01:33:00,
2013-02-25 20:38:00,48.4,31.5,29.87,SSE,158,2.0,4.7,52,0.00,,,0.00,WUHU216HW,2013-02-26 01:38:00,
2013-02-25 20:43:00,48.2,31.9,29.87,SE,135,3.6,5.4,53,0.00,,,0.00,WUHU216HW,2013-02-26 01:43:00,
2013-02-25 20:48:00,48.2,31.9,29.87,SE,135,3.6,5.4,53,0.00,,,0.00,WUHU216HW,2013-02-26 01:48:00,
2013-02-25 20:53:00,48.4,32.5,29.86,SSE,158,2.5,6.0,54,0.00,,,0.00,WUHU216HW,2013-02-26 01:53:00,
2013-02-25 20:58:00,48.4,32.5,29.87,South,180,4.0,6.0,54,0.00,,,0.00,WUHU216HW,2013-02-26 01:58:00,
2013-02-25 21:03:00,48.6,32.7,29.86,East,90,1.8,6.3,54,0.00,,,0.00,WUHU216HW,2013-02-26 02:03:00,
2013-02-25 21:08:00,48.6,32.7,29.86,South,180,4.5,6.3,54,0.00,,,0.00,WUHU216HW,2013-02-26 02:08:00,
2013-02-25 21:13:00,48.6,33.1,29.86,SE,135,6.0,6.0,55,0.00,,,0.00,WUHU216HW,2013-02-26 02:13:00,
2013-02-25 21:18:00,48.6,33.1,29.87,SE,135,2.5,6.5,55,0.00,,,0.00,WUHU216HW,2013-02-26 02:18:00,
2013-02-25 21:23:00,48.6,33.1,29.87,SE,135,4.7,6.5,55,0.00,,,0.00,WUHU216HW,2013-02-26 02:23:00,
2013-02-25 21:28:00,48.6,33.1,29.87,East,90,2.7,5.1,55,0.00,,,0.00,WUHU216HW,2013-02-26 02:28:00,
2013-02-25 21:33:00,48.6,33.1,29.87,SE,135,2.7,5.4,55,0.00,,,0.00,WUHU216HW,2013-02-26 02:33:00,
2013-02-25 21:38:00,48.4,33.0,29.88,SE,135,3.4,5.4,55,0.00,,,0.00,WUHU216HW,2013-02-26 02:38:00,
2013-02-25 21:43:00,48.4,33.4,29.88,SSE,158,0.4,7.2,56,0.00,,,0.00,WUHU216HW,2013-02-26 02:43:00,
2013-02-25 21:48:00,48.6,33.6,29.87,SE,135,3.4,7.2,56,0.00,,,0.00,WUHU216HW,2013-02-26 02:48:00,
2013-02-25 21:53:00,48.6,33.6,29.87,SSE,158,4.3,6.5,56,0.00,,,0.00,WUHU216HW,2013-02-26 02:53:00,
2013-02-25 21:58:00,48.6,33.6,29.86,SSE,158,6.9,7.6,56,0.00,,,0.00,WUHU216HW,2013-02-26 02:58:00,
2013-02-25 22:03:00,48.6,33.6,29.86,SE,135,5.8,7.6,56,0.00,,,0.00,WUHU216HW,2013-02-26 03:03:00,
2013-02-25 22:08:00,48.6,33.6,29.86,SE,135,2.7,7.2,56,0.00,,,0.00,WUHU216HW,2013-02-26 03:08:00,
2013-02-25 22:13:00,48.6,34.0,29.86,SE,135,5.6,6.9,57,0.00,,,0.00,WUHU216HW,2013-02-26 03:13:00,
2013-02-25 22:18:00,48.6,34.0,29.85,SSE,158,4.7,8.1,57,0.00,,,0.00,WUHU216HW,2013-02-26 03:18:00,
2013-02-25 22:23:00,48.4,33.8,29.85,SE,135,5.4,8.1,57,0.00,,,0.00,WUHU216HW,2013-02-26 03:23:00,
2013-02-25 22:28:00,48.4,33.8,29.85,SSE,158,4.9,6.5,57,0.00,,,0.00,WUHU216HW,2013-02-26 03:28:00,
2013-02-25 22:33:00,48.2,33.7,29.84,SSE,158,4.9,6.9,57,0.00,,,0.00,WUHU216HW,2013-02-26 03:33:00,
2013-02-25 22:38:00,48.2,33.7,29.84,SE,135,4.9,6.9,57,0.00,,,0.00,WUHU216HW,2013-02-26 03:38:00,
2013-02-25 22:43:00,48.2,33.7,29.84,SE,135,5.4,6.9,57,0.00,,,0.00,WUHU216HW,2013-02-26 03:43:00,
2013-02-25 22:48:00,48.2,34.2,29.85,SE,135,6.7,6.9,58,0.00,,,0.00,WUHU216HW,2013-02-26 03:48:00,
2013-02-25 22:53:00,48.1,34.0,29.85,SSE,158,4.5,6.9,58,0.00,,,0.00,WUHU216HW,2013-02-26 03:53:00,
2013-02-25 22:58:00,48.1,34.0,29.85,WSW,248,5.4,6.7,58,0.00,,,0.00,WUHU216HW,2013-02-26 03:58:00,
2013-02-25 23:03:00,48.1,34.5,29.85,SSE,158,4.7,6.0,59,0.00,,,0.00,WUHU216HW,2013-02-26 04:03:00,
2013-02-25 23:08:00,48.1,34.5,29.85,ESE,113,3.1,5.6,59,0.00,,,0.00,WUHU216HW,2013-02-26 04:08:00,
2013-02-25 23:13:00,47.9,34.3,29.85,SE,135,1.1,5.8,59,0.00,,,0.00,WUHU216HW,2013-02-26 04:13:00,
2013-02-25 23:18:00,47.9,34.3,29.83,SSE,158,1.6,5.8,59,0.00,,,0.00,WUHU216HW,2013-02-26 04:18:00,
2013-02-25 23:23:00,47.9,34.3,29.84,SSE,158,2.5,4.0,59,0.00,,,0.00,WUHU216HW,2013-02-26 04:23:00,
2013-02-25 23:28:00,47.9,34.7,29.84,SSW,203,1.8,6.7,60,0.00,,,0.00,WUHU216HW,2013-02-26 04:28:00,
2013-02-25 23:33:00,47.7,34.6,29.84,SSE,158,1.6,6.7,60,0.00,,,0.00,WUHU216HW,2013-02-26 04:33:00,
2013-02-25 23:38:00,47.7,34.6,29.85,SSE,158,3.4,4.7,60,0.00,,,0.00,WUHU216HW,2013-02-26 04:38:00,
2013-02-25 23:43:00,47.5,34.7,29.84,SSE,158,4.7,6.3,61,0.00,,,0.00,WUHU216HW,2013-02-26 04:43:00,
2013-02-25 23:48:00,47.5,34.7,29.84,SSE,158,2.9,6.3,61,0.00,,,0.00,WUHU216HW,2013-02-26 04:48:00,
2013-02-25 23:53:00,47.5,34.7,29.84,SSW,203,0.9,5.4,61,0.00,,,0.00,WUHU216HW,2013-02-26 04:53:00,
2013-02-25 23:58:00,47.3,34.6,29.83,South,180,4.7,8.5,61,0.00,,,0.00,WUHU216HW,2013-02-26 04:58:00,